星链-5008 (STARLINK-5008 )

导读 | 豆包AI

STARLINK-5008是美国太空探索技术公司(SpaceX)星链互联网卫星星座中的一员,于2022年9月24日发射升空。星链计划旨在构建全球卫星互联网星座,为全球提供高速低延迟互联网服务,该卫星入轨后承担相关通信组网任务,助力星链系统完成全球覆盖布局。

Basic Information
目录编号:
53927
目录名称:
STARLINK-5008
国际标识:
2022-119AT
轨道中心:
EARTH
卫星名称:
星链-5008
卫星全名:
星链-5008 (STARLINK-5008 )
卫星状态:
已陨落 最后检测时间 2025-11-17
发射日期:
2022-09-24 UTC
国别 :
美国 (US)
星等 :
--
Orbit Information
数据来源 国际轨道数据
星历时间: 2025-11-17T20:35:56+0800
轨道信息已过期118天
半长轴: 6523.814km
偏心率: 0.0003691
轨道倾角: 53.170°
近地点辐角 166.756°
升交点赤经 339.587°
平近点角 193.359°
近地点: 143.271km
远地点: 148.087km
周期: 87.400分钟
每日圈数: 16.475948
Detailed Information
固有亮度:
5
最大亮度:
2.5
卫星平台:
Starlink v1.5
覆盖范围:
全球
运营商:
太空探索技术公司
运营商所在国:
美国
制造商(研发单位):
太空探索技术公司
制造商所在国:
美国
使用方式:
暂无
Satellite Introduction
星链(Starlink)计划是由太空探索技术公司(SpaceX)提出的一个巨型低轨卫星互联网星座项目,计划在2019年至2024年间在太空搭建由约1.2万颗卫星组成的“星链”网络,其中1584颗将部署在地球上空550千米处的近地轨道,并从2020年开始工作。该卫星仍在工作。